FORMOSAT-5 (42920 NORAD) Tracking and Keplerian Element Data

This shows tracking and keplerian element data for the satellite.

Feedback or suggestion? Click here.




ElementValue
Catalog42920
NameFORMOSAT-5
Epoch Orbit8323
Epoch Day80.78525227
Epoch Year2019
RAAN159.918
Inclination98.3342
Eccentricity0.0009151
Argument of Perigee283.4599
Mean Anonmoly76.5579
Mean Motion14.50827752
Decay Rate-3.8E-07
L11 42920U 17049A 19080.78525227 -.00000038 00000-0 18019-5 0 9990
L22 42920 98.3342 159.9180 0009151 283.4599 76.5579 14.50827752 83233

Live tracking and technical data element details for FORMOSAT-5 (NORAD 42920). FORMOSAT-5 can be tracked NOW for your location showing map with azimuth and elevation plus other details from your city location.

Track the satellite on the map from your city or location and see movement details for azimuth, elevation, latitude, longitude, range, height, and movement on the map or in text.







IsCatalogInMostPopularTable: catalog: 42920, numindb: 227
Update: records affected: 1



GetName: 42920 FORMOSAT-5

Hit Count: updated at: Sat, 23 Mar 2019 02:07:53 GMT